Change the Weather History Date:

Friday, February 24, 2012

  Actual Average Record
Temperature  
Mean Temperature 47 °F 52 °F  
Max Temperature 59 °F 65 °F 86 °F (1904)
Min Temperature 35 °F 39 °F 16 °F (1894)
Degree Days  
Heating Degree Days 18 13  
Month to date heating degree days 372 369  
Since 1 July heating degree days 1980 2054  
Cooling Degree Days 0 0  
Month to date cooling degree days 0 0  
Year to date cooling degree days 0 0  
Moisture  
Dew Point 14 °F    
Average Humidity 31    
Maximum Humidity 44    
Minimum Humidity 17    
Precipitation  
Precipitation 0.00 in 0.02 in 0.28 in (2005)
Month to date precipitation 0.02 0.41  
Year to date precipitation 0.68 0.81  
Snow  
Snow 0.00 in - - ()
Month to date snowfall 0.0  
Since 1 July snowfall 3.2  
Snow Depth 0.00 in    
Sea Level Pressure  
Sea Level Pressure 30.12 in    
Wind  
Wind Speed 7 mph (East)    
Max Wind Speed 22 mph    
Max Gust Speed 30 mph    
Visibility 10 miles    
Events      
T = Trace of Precipitation, MM = Missing Value Source: NWS Daily Summary

Daily Weather History Graph

Daily Weather History Graph

Search for Another Location

Airport or City:

Trip Planner

Search our weather history database for the weather conditions in past years. The results will help you decide how hot, cold, wet, or windy it might be!

Date:

Astronomy

Feb. 24, 2012 Rise Set
Actual Time 6:38 AM MST 5:59 PM MST
Civil Twilight 6:14 AM MST 6:23 PM MST
Nautical Twilight 5:45 AM MST 6:52 PM MST
Astronomical Twilight 5:17 AM MST 7:20 PM MST
Moon 7:48 AM MST (2/24) 8:49 PM MST (2/24)
Length of Visible Light 12h 09m
Length of Day
11h 20m
Waxing Crescent, 8% of the Moon is Illuminated
Feb 24
Waxing Crescent
Feb 29
First Quarter
Mar 8
Full
Mar 14
Last Quarter
Mar 22
New

Hourly Weather History & Observations

Time (MST) Temp. Windchill Dew Point Humidity Pressure Visibility Wind Dir Wind Speed Gust Speed Precip Events Conditions
12:36 AM 44.6 °F 37.4 °F 15.8 °F 31% 29.99 in 5.0 mi NE 16.1 mph 26.5 mph N/A   Widespread Dust
12:51 AM 45.0 °F 37.1 °F 15.1 °F 30% 29.90 in 6.0 mi ENE 19.6 mph 25.3 mph N/A   Widespread Dust
1:51 AM 43.0 °F 36.8 °F 15.1 °F 32% 29.94 in 10.0 mi ENE 11.5 mph - N/A   Partly Cloudy
2:51 AM 39.2 °F 31.2 °F 15.8 °F 39% 30.09 in 10.0 mi East 13.8 mph 20.7 mph N/A   Clear
3:51 AM 39.0 °F 31.8 °F 15.1 °F 38% 29.99 in 10.0 mi ENE 11.5 mph - N/A   Clear
4:51 AM 37.9 °F 31.5 °F 16.0 °F 41% 30.04 in 10.0 mi ENE 9.2 mph - N/A   Clear
5:51 AM 36.0 °F 29.6 °F 16.0 °F 44% 30.08 in 10.0 mi NNE 8.1 mph - N/A   Clear
6:51 AM 35.6 °F 32.8 °F 15.8 °F 44% 30.20 in 10.0 mi ENE 3.5 mph - N/A   Partly Cloudy
7:51 AM 39.0 °F 32.3 °F 17.1 °F 41% 30.15 in 10.0 mi ENE 10.4 mph - N/A   Scattered Clouds
8:51 AM 42.1 °F - 16.0 °F 35% 30.17 in 10.0 mi Calm Calm - N/A   Scattered Clouds
9:51 AM 46.0 °F 40.6 °F 14.0 °F 28% 30.16 in 10.0 mi East 11.5 mph 19.6 mph N/A   Partly Cloudy
10:51 AM 48.9 °F - 14.0 °F 25% 30.15 in 10.0 mi ESE 11.5 mph - N/A   Partly Cloudy
11:51 AM 51.1 °F - 14.0 °F 23% 30.17 in 10.0 mi Calm Calm - N/A   Partly Cloudy
12:51 PM 54.0 °F - 14.0 °F 21% 30.14 in 10.0 mi Calm Calm - N/A   Partly Cloudy
1:51 PM 55.0 °F - 12.9 °F 19% 30.12 in 10.0 mi NE 8.1 mph - N/A   Partly Cloudy
2:51 PM 57.0 °F - 12.9 °F 18% 30.12 in 10.0 mi SE 3.5 mph - N/A   Partly Cloudy
3:51 PM 57.0 °F - 12.0 °F 17% 30.11 in 10.0 mi ESE 6.9 mph - N/A   Partly Cloudy
4:51 PM 57.9 °F - 12.0 °F 16% 30.12 in 10.0 mi NNE 3.5 mph - N/A   Clear
5:51 PM 57.0 °F - 12.0 °F 17% 30.13 in 10.0 mi Calm Calm - N/A   Clear
6:51 PM 53.1 °F - 12.0 °F 20% 30.15 in 10.0 mi ESE 3.5 mph - N/A   Clear
7:51 PM 51.1 °F - 12.9 °F 22% 30.17 in 10.0 mi ESE 8.1 mph - N/A   Clear
8:51 PM 48.2 °F - 12.2 °F 24% 30.23 in 10.0 mi ESE 8.1 mph - N/A   Clear
9:51 PM 44.1 °F - 12.9 °F 28% 30.19 in 10.0 mi Calm Calm - N/A   Clear
10:51 PM 46.4 °F - 14.0 °F 27% 30.24 in 10.0 mi Calm Calm - N/A   Clear
11:51 PM 45.0 °F 43.5 °F 14.0 °F 29% 30.17 in 10.0 mi ESE 3.5 mph - N/A   Clear